• In United Kingdom
  • List of Countries
  • For 7 days
  • Water Temperature
  • Satellite Maps
  • Weather Map
  • Weather Widgets
  • user-avatar
    Login

    Hourly Weather Ganja

    Today, 20 September, Wednesday

    Time Temperature Precipitation Wind Pressure Humidity
    00:00 +24°C° 0 mm 2 mps 727 mmHg 45%
    01:00 +23°C° 0 mm 1 mps 727 mmHg 47%
    02:00 +23°C° 0 mm 1 mps 727 mmHg 50%
    03:00 +20°C° 0 mm 0 mps 727 mmHg 53%
    04:00 +22°C° 0 mm 1 mps 727 mmHg 52%
    05:00 +22°C° 0 mm 1 mps 727 mmHg 52%
    06:00 +22°C° 0 mm 1 mps 727 mmHg 51%
    07:00 +24°C° 0 mm 1 mps 727 mmHg 47%
    08:00 +26°C° 0 mm 2 mps 727 mmHg 44%
    09:00 +27°C° 0 mm 2 mps 727 mmHg 40%
    10:00 +29°C° 0 mm 2 mps 727 mmHg 37%
    11:00 +30°C° 0 mm 2 mps 727 mmHg 33%
    12:00 +31°C° 0 mm 2 mps 726 mmHg 30%
    13:00 +32°C° 0 mm 2 mps 726 mmHg 30%
    14:00 +32°C° 0 mm 2 mps 726 mmHg 29%
    15:00 +34°C° 0 mm 2 mps 725 mmHg 29%
    16:00 +31°C° 0 mm 2 mps 725 mmHg 32%
    17:00 +30°C° 0 mm 2 mps 725 mmHg 36%
    18:00 +28°C° 0 mm 2 mps 725 mmHg 40%
    19:00 +27°C° 0 mm 2 mps 726 mmHg 42%
    20:00 +27°C° 0 mm 1 mps 726 mmHg 43%
    21:00 +26°C° 0 mm 1 mps 726 mmHg 45%
    22:00 +25°C° 0 mm 1 mps 726 mmHg 46%
    23:00 +25°C° 0 mm 1 mps 726 mmHg 47%

    Tomorrow, 21 September, Thursday

    Time Temperature Precipitation Wind Pressure Humidity
    00:00 +24°C° 0 mm 1 mps 726 mmHg 48%
    01:00 +24°C° 0 mm 1 mps 726 mmHg 49%
    02:00 +23°C° 0 mm 1 mps 726 mmHg 49%
    03:00 +23°C° 0 mm 1 mps 726 mmHg 49%
    04:00 +23°C° 0 mm 1 mps 726 mmHg 48%
    05:00 +23°C° 0 mm 1 mps 726 mmHg 48%
    06:00 +22°C° 0 mm 1 mps 726 mmHg 47%
    07:00 +25°C° 0 mm 1 mps 726 mmHg 42%
    08:00 +27°C° 0 mm 1 mps 726 mmHg 38%
    09:00 +29°C° 0 mm 2 mps 726 mmHg 33%
    10:00 +30°C° 0 mm 2 mps 726 mmHg 31%
    11:00 +31°C° 0 mm 2 mps 726 mmHg 29%
    12:00 +32°C° 0 mm 2 mps 725 mmHg 27%
    13:00 +34°C° 0 mm 3 mps 725 mmHg 27%
    14:00 +34°C° 0 mm 3 mps 725 mmHg 26%
    15:00 +35°C° 0 mm 3 mps 724 mmHg 26%
    16:00 +33°C° 0 mm 3 mps 724 mmHg 29%
    17:00 +30°C° 0 mm 3 mps 724 mmHg 33%
    18:00 +29°C° 0 mm 2 mps 724 mmHg 36%
    19:00 +28°C° 0 mm 2 mps 724 mmHg 38%
    20:00 +27°C° 0 mm 2 mps 725 mmHg 40%
    21:00 +26°C° 0 mm 2 mps 725 mmHg 42%
    22:00 +26°C° 0 mm 2 mps 725 mmHg 43%
    23:00 +25°C° 0 mm 2 mps 725 mmHg 44%

    Day after tomorrow, 22 September, Friday

    Time Temperature Precipitation Wind Pressure Humidity
    00:00 +24°C° 0 mm 3 mps 725 mmHg 46%
    01:00 +24°C° 0 mm 2 mps 725 mmHg 48%
    02:00 +23°C° 0 mm 1 mps 725 mmHg 49%
    03:00 +23°C° 0 mm 1 mps 725 mmHg 51%
    04:00 +22°C° 0 mm 1 mps 725 mmHg 51%
    05:00 +22°C° 0 mm 1 mps 725 mmHg 52%
    06:00 +22°C° 0 mm 1 mps 725 mmHg 53%
    07:00 +24°C° 0 mm 1 mps 725 mmHg 47%
    08:00 +26°C° 0 mm 1 mps 725 mmHg 41%
    09:00 +28°C° 0 mm 2 mps 725 mmHg 35%
    10:00 +29°C° 0 mm 2 mps 725 mmHg 32%
    11:00 +30°C° 0 mm 3 mps 724 mmHg 29%
    12:00 +31°C° 0 mm 3 mps 724 mmHg 26%
    13:00 +33°C° 0 mm 4 mps 723 mmHg 25%
    14:00 +33°C° 0 mm 4 mps 723 mmHg 24%
    15:00 +34°C° 0 mm 4 mps 723 mmHg 23%
    16:00 +32°C° 0 mm 4 mps 723 mmHg 27%
    17:00 +29°C° 0 mm 3 mps 723 mmHg 31%
    18:00 +28°C° 0 mm 2 mps 723 mmHg 35%
    19:00 +27°C° 0 mm 3 mps 723 mmHg 37%
    20:00 +26°C° 0 mm 3 mps 724 mmHg 39%
    21:00 +25°C° 0 mm 3 mps 724 mmHg 41%
    22:00 +25°C° 0 mm 2 mps 724 mmHg 43%
    23:00 +24°C° 0 mm 2 mps 724 mmHg 45%

    23 September, Saturday

    Time Temperature Precipitation Wind Pressure Humidity
    00:00 +23°C° 0 mm 2 mps 725 mmHg 47%
    01:00 +23°C° 0 mm 1 mps 725 mmHg 48%
    02:00 +22°C° 0 mm 1 mps 725 mmHg 49%
    03:00 +22°C° 0 mm 1 mps 725 mmHg 50%
    04:00 +21°C° 0 mm 1 mps 725 mmHg 50%
    05:00 +21°C° 0 mm 1 mps 725 mmHg 49%
    06:00 +20°C° 0 mm 2 mps 725 mmHg 49%
    07:00 +23°C° 0 mm 2 mps 726 mmHg 44%
    08:00 +25°C° 0 mm 2 mps 726 mmHg 38%
    09:00 +27°C° 0 mm 2 mps 726 mmHg 33%
    10:00 +28°C° 0 mm 2 mps 726 mmHg 31%
    11:00 +29°C° 0 mm 2 mps 726 mmHg 29%
    12:00 +30°C° 0 mm 2 mps 726 mmHg 27%
    13:00 +31°C° 0 mm 3 mps 725 mmHg 27%
    14:00 +31°C° 0 mm 3 mps 725 mmHg 26%
    15:00 +33°C° 0 mm 3 mps 725 mmHg 25%
    16:00 +30°C° 0 mm 3 mps 726 mmHg 28%
    17:00 +29°C° 0 mm 2 mps 726 mmHg 31%
    18:00 +27°C° 0 mm 2 mps 726 mmHg 34%
    19:00 +26°C° 0 mm 2 mps 727 mmHg 36%
    20:00 +26°C° 0 mm 2 mps 727 mmHg 38%
    21:00 +25°C° 0 mm 2 mps 728 mmHg 39%
    22:00 +24°C° 0 mm 2 mps 728 mmHg 41%
    23:00 +24°C° 0 mm 2 mps 728 mmHg 44%

    24 September, Sunday

    Time Temperature Precipitation Wind Pressure Humidity
    00:00 +23°C° 0 mm 2 mps 728 mmHg 46%
    01:00 +23°C° 0 mm 1 mps 728 mmHg 46%
    02:00 +22°C° 0 mm 1 mps 728 mmHg 47%
    03:00 +22°C° 0 mm 1 mps 728 mmHg 47%
    04:00 +21°C° 0 mm 1 mps 728 mmHg 47%
    05:00 +21°C° 0 mm 1 mps 729 mmHg 47%
    06:00 +20°C° 0 mm 2 mps 729 mmHg 47%
    07:00 +23°C° 0 mm 2 mps 729 mmHg 41%
    08:00 +25°C° 0 mm 2 mps 729 mmHg 36%
    09:00 +27°C° 0 mm 2 mps 729 mmHg 31%
    10:00 +28°C° 0 mm 2 mps 729 mmHg 28%
    11:00 +29°C° 0 mm 3 mps 729 mmHg 26%
    12:00 +32°C° 0 mm 4 mps 728 mmHg 24%
    13:00 +32°C° 0 mm 4 mps 728 mmHg 23%
    14:00 +33°C° 0 mm 5 mps 728 mmHg 22%
    15:00 +33°C° 0 mm 5 mps 728 mmHg 21%
    16:00 +30°C° 0 mm 5 mps 728 mmHg 25%
    17:00 +29°C° 0 mm 4 mps 728 mmHg 28%
    18:00 +27°C° 0 mm 3 mps 728 mmHg 32%
    19:00 +26°C° 0 mm 4 mps 729 mmHg 35%
    20:00 +25°C° 0 mm 4 mps 729 mmHg 38%
    21:00 +25°C° 0 mm 4 mps 729 mmHg 41%
    22:00 +23°C° 0 mm 4 mps 729 mmHg 43%
    23:00 +22°C° 0 mm 3 mps 729 mmHg 46%

    25 September, Monday

    Time Temperature Precipitation Wind Pressure Humidity
    00:00 +21°C° 0 mm 3 mps 729 mmHg 48%
    01:00 +21°C° 0 mm 2 mps 729 mmHg 48%
    02:00 +20°C° 0 mm 2 mps 729 mmHg 49%
    03:00 +21°C° 0 mm 1 mps 729 mmHg 49%
    04:00 +20°C° 0 mm 1 mps 729 mmHg 49%
    05:00 +20°C° 0 mm 1 mps 729 mmHg 49%
    06:00 +20°C° 0 mm 1 mps 729 mmHg 49%
    07:00 +22°C° 0 mm 1 mps 729 mmHg 45%
    08:00 +23°C° 0 mm 1 mps 729 mmHg 40%
    09:00 +25°C° 0 mm 2 mps 729 mmHg 36%
    10:00 +27°C° 0 mm 2 mps 729 mmHg 34%
    11:00 +28°C° 0 mm 3 mps 729 mmHg 32%
    12:00 +29°C° 0 mm 4 mps 729 mmHg 31%
    13:00 +29°C° 0 mm 4 mps 729 mmHg 30%
    14:00 +30°C° 0 mm 4 mps 728 mmHg 30%
    15:00 +30°C° 0 mm 4 mps 728 mmHg 30%
    16:00 +29°C° 0 mm 4 mps 728 mmHg 34%
    17:00 +27°C° 0 mm 3 mps 729 mmHg 38%
    18:00 +26°C° 0 mm 3 mps 729 mmHg 42%
    19:00 +25°C° 0 mm 3 mps 729 mmHg 44%
    20:00 +23°C° 0 mm 4 mps 730 mmHg 47%
    21:00 +22°C° 0 mm 4 mps 730 mmHg 49%
    22:00 +22°C° 0 mm 4 mps 730 mmHg 51%
    23:00 +21°C° 0 mm 3 mps 730 mmHg 54%
    Show more